[[{"header":{"parameterUnit":"m.s-1","parameterCategory":1,"la1":30.2991,"la2":30.254,"lo1":-89.0895,"lo2":-89.0444,"dy":0.0017,"dx":0.0017,"nx":28,"ny":28,"refTime":"2023-08-18T09:00:00:Z","depth":0,"parameterNumber":2,"parameterNumberName":"U-component_of_WINDS"},"data":[0,0,0,0,0,0,0,0,0,0,0,0,0,0,0,0,0,0,0,0,0,0,0,0,0,0,0,0,0,0,0,0,0,0,0,0,0,0,0,0,0,0,0,0,0,0,0,0,0,0,0,0,0,0,0,0,0,0,2.2511,2.2511,0,2.2604,2.2605,2.2606,2.2637,2.2637,2.2636,2.2636,2.2737,2.274,2.2743,0,0,0,0,0,0,0,0,0,0,0,0,0,2.2365,2.2368,2.251,2.2512,2.2513,2.2604,2.2605,2.2606,2.2637,2.2637,2.2636,2.2636,2.2736,2.274,2.2743,0,0,0,0,0,0,0,0,0,0,0,0,0,2.244,2.2368,2.251,2.2539,2.2542,2.2604,2.2605,2.2607,2.2637,2.2637,2.2636,2.2635,2.2735,2.2739,2.2744,2.2785,0,0,2.2758,2.276,0,0,0,0,0,0,0,0,2.2436,2.2446,2.2534,2.2537,2.2541,2.2608,2.2591,2.2667,2.2637,2.2601,2.2636,2.2635,2.2695,2.2703,2.2722,2.279,2.2794,2.2759,2.2761,2.2763,2.2765,0,0,0,0,0,0,0,2.2431,2.2442,2.2548,2.2535,2.2539,2.2549,2.2559,2.2606,2.2651,2.2604,2.2607,2.2617,2.2697,2.2717,2.2725,2.2796,2.2758,2.2763,2.2765,2.2767,2.2905,2.2906,0,0,0,0,0,0,2.242,2.2437,2.2545,2.255,2.2486,2.2552,2.2564,2.2587,2.265,2.2659,2.2618,2.2618,2.271,2.2719,2.2728,2.2782,2.2763,2.2768,2.277,2.2904,2.2905,2.2906,0,0,0,0,0,0,2.2417,2.2429,2.2541,2.2495,2.251,2.2556,2.2582,2.2589,2.261,2.266,2.2669,2.263,2.271,2.2722,2.2771,2.2786,2.277,2.2774,2.2903,2.2904,2.2905,2.2889,0,0,0,0,0,0,2.2412,2.2428,2.2442,2.2495,2.2512,2.258,2.2583,2.2592,2.2617,2.2619,2.2674,2.2683,2.271,2.2764,2.2775,2.2792,2.2778,2.2902,2.2903,2.2905,2.2888,2.289,2.2891,0,0,0,0,0,2.2407,2.2434,2.2443,2.2455,2.253,2.258,2.2591,2.262,2.2618,2.2634,2.2667,2.2681,2.2782,2.2769,2.2782,2.28,2.2901,2.2903,2.2905,2.2888,2.2889,2.2891,0,0,0,0,0,0,2.2384,2.2442,2.2452,2.2496,2.2533,2.2585,2.2606,2.262,2.266,2.266,2.2697,2.2709,2.2756,2.2783,2.2767,2.2845,2.2843,2.2847,2.2825,2.2827,2.2828,2.2821,2.2781,0,0,0,0,0,2.2384,2.2418,2.2467,2.2502,2.252,2.256,2.2583,2.2602,2.2643,2.2659,2.2695,2.2736,2.2777,2.2803,2.2844,2.2892,2.2906,2.2912,2.2913,2.2914,2.2918,2.2948,2.2951,2.2912,2.2912,2.2912,0,0,2.2384,2.242,2.244,2.2498,2.2529,2.2566,2.2573,2.2611,2.2639,2.2666,2.2714,2.2742,2.279,2.2839,2.2863,2.2863,2.2932,2.2916,2.2916,2.292,2.295,2.2954,2.2957,2.2914,2.2913,2.2913,0,0,2.2404,2.2434,2.2467,2.2498,2.2544,2.257,2.2578,2.2629,2.2649,2.2697,2.2719,2.2754,2.2824,2.2857,2.2883,2.2918,2.2933,2.293,2.2936,2.2965,2.2968,2.2971,2.2986,2.299,2.2934,2.2934,2.2934,0,2.2399,2.2453,2.2483,2.252,2.2546,2.257,2.2606,2.2635,2.2693,2.2712,2.2711,2.28,2.2833,2.2892,2.2901,2.292,2.2933,2.2924,2.2965,2.2969,2.2972,2.2986,2.2991,2.2934,2.2934,2.2934,2.2934,0,2.2446,2.2483,2.2505,2.2559,2.2588,2.2624,2.2661,2.2687,2.2705,2.2732,2.2784,2.2825,2.2875,2.2891,2.2909,2.2953,2.2952,2.2957,2.2956,2.2974,2.2988,2.2994,2.2933,2.2933,2.2933,2.2933,0,0,2.2453,2.2524,2.2531,2.2557,2.2611,2.2641,2.268,2.2727,2.275,2.279,2.2824,2.2883,2.289,2.292,2.2942,2.2967,2.2994,2.297,2.2972,2.2975,2.3048,2.3044,2.3049,2.3004,2.3005,2.3006,2.3045,0,2.2481,2.2548,2.2577,2.2632,2.2669,2.2693,2.2728,2.2765,2.2793,2.2829,2.286,2.2902,2.2906,2.2925,2.2951,2.2985,2.301,2.2983,2.3039,2.3041,2.3027,2.3056,2.3052,2.3086,2.305,2.3051,2.3052,0,2.2522,2.2561,2.2619,2.267,2.2687,2.2716,2.2764,2.2797,2.2842,2.2861,2.2894,2.2916,2.296,2.2955,2.3018,2.2999,2.3024,2.3045,2.3047,2.3054,2.3048,2.3066,2.3097,2.3103,2.306,2.3059,2.3059,0,2.2523,2.259,2.2635,2.2656,2.2716,2.2737,2.2763,2.2807,2.2834,2.2876,2.2895,2.2942,2.2969,2.3006,2.304,2.3033,2.3101,2.3098,2.3119,2.3118,2.3133,2.3132,2.317,2.3147,2.3147,2.3147,2.3146,0,2.2552,2.2587,2.2636,2.2663,2.2705,2.2738,2.2779,2.2808,2.2847,2.2882,2.2907,2.294,2.2983,2.3022,2.305,2.3099,2.311,2.3128,2.3135,2.3126,2.3124,2.3144,2.3143,2.3148,2.3148,2.3147,2.3147,0,2.256,2.2594,2.2644,2.2697,2.2712,2.274,2.2786,2.2815,2.2844,2.2889,2.2901,2.2947,2.2995,2.3033,2.3095,2.3114,2.3166,2.3173,2.315,2.3154,2.3174,2.3172,2.3227,2.3237,2.3205,2.3206,2.3206,0,2.2576,2.2604,2.266,2.2685,2.2711,2.275,2.2778,2.2813,2.2842,2.2896,2.2919,2.2968,2.3009,2.3085,2.3126,2.3174,2.3184,2.32,2.3191,2.3182,2.3186,2.3184,2.3189,2.3201,2.3201,2.3201,2.3201,0,2.2602,2.2618,2.2657,2.2702,2.2735,2.2773,2.2811,2.2831,2.2873,2.2905,2.2953,2.2985,2.3049,2.3099,2.3152,2.3182,2.32,2.3204,2.3212,2.3203,2.319,2.3199,2.3154,2.3202,2.3202,2.3202,2.3202,2.3202,2.2617,2.2643,2.2687,2.273,2.2763,2.2799,2.2829,2.2861,2.2902,2.2955,2.2974,2.3024,2.3071,2.3144,2.3175,2.3216,2.3218,2.3228,2.3231,2.3234,2.3234,2.3182,2.3226,2.3226,2.3226,2.3226,2.3226,0,2.2645,2.2675,2.2714,2.2767,2.2802,2.2814,2.2858,2.2887,2.293,2.2971,2.3011,2.3068,2.3116,2.3161,2.3212,2.3237,2.3247,2.325,2.3249,2.3256,2.3228,2.3217,2.3241,2.3241,2.3241,2.3241,2.3241,2.3241,2.2664,2.271,2.2732,2.2795,2.2826,2.2874,2.2898,2.2932,2.2966,2.3027,2.3067,2.3095,2.3139,2.3194,2.324,2.3252,2.3271,2.3271,2.3286,2.326,2.3258,2.3256,2.3246,2.3275,2.3275,2.331,2.3311,2.3311]},{"header":{"parameterUnit":"m.s-1","parameterCategory":1,"la1":30.2991,"la2":30.254,"lo1":-89.0895,"lo2":-89.0444,"dy":0.0017,"dx":0.0017,"nx":28,"ny":28,"refTime":"2023-08-18T09:00:00:Z","depth":0,"parameterNumber":3,"parameterNumberName":"V-component_of_WINDS"},"data":[0,0,0,0,0,0,0,0,0,0,0,0,0,0,0,0,0,0,0,0,0,0,0,0,0,0,0,0,0,0,0,0,0,0,0,0,0,0,0,0,0,0,0,0,0,0,0,0,0,0,0,0,0,0,0,0,0,0,1.0494,1.0493,0,1.0481,1.0481,1.0481,1.0422,1.0421,1.042,1.0418,1.0403,1.0404,1.0405,0,0,0,0,0,0,0,0,0,0,0,0,0,1.0463,1.0464,1.0494,1.0493,1.0493,1.0481,1.0481,1.0481,1.0423,1.0421,1.0419,1.0418,1.0403,1.0404,1.0405,0,0,0,0,0,0,0,0,0,0,0,0,0,1.0466,1.0464,1.0494,1.0463,1.046,1.0481,1.0481,1.0481,1.0423,1.0421,1.0419,1.0417,1.0403,1.0404,1.0405,1.0454,0,0,1.0409,1.041,0,0,0,0,0,0,0,0,1.0466,1.0467,1.0468,1.0465,1.0462,1.0451,1.0465,1.0472,1.0424,1.0437,1.0418,1.0416,1.0421,1.0421,1.0423,1.0454,1.0453,1.041,1.041,1.0411,1.0411,0,0,0,0,0,0,0,1.0466,1.0467,1.0488,1.0468,1.0464,1.0448,1.0447,1.0466,1.044,1.0436,1.0431,1.0431,1.0419,1.0422,1.0422,1.0453,1.0409,1.0411,1.0411,1.0412,1.0518,1.052,0,0,0,0,0,0,1.047,1.0468,1.0489,1.0488,1.0459,1.0451,1.0449,1.0457,1.044,1.0436,1.0433,1.0428,1.042,1.042,1.0421,1.0473,1.0411,1.0412,1.0413,1.0516,1.0518,1.052,0,0,0,0,0,0,1.047,1.0473,1.0489,1.0477,1.0478,1.0453,1.0463,1.0457,1.046,1.0438,1.0433,1.044,1.0419,1.0419,1.0445,1.0472,1.0413,1.0414,1.0513,1.0517,1.0519,1.0581,0,0,0,0,0,0,1.0469,1.0473,1.0493,1.0478,1.0479,1.0515,1.0465,1.0459,1.0463,1.0457,1.0443,1.0439,1.0417,1.0444,1.0447,1.0473,1.0415,1.0511,1.0515,1.0518,1.0576,1.0585,1.0593,0,0,0,0,0,1.0469,1.0511,1.0494,1.0497,1.0503,1.0517,1.0518,1.0492,1.0465,1.0483,1.0468,1.044,1.0469,1.0447,1.045,1.0477,1.0509,1.0514,1.0518,1.0572,1.0584,1.0593,0,0,0,0,0,0,1.053,1.0509,1.0489,1.0529,1.0525,1.0507,1.053,1.0505,1.0509,1.0503,1.047,1.0468,1.0498,1.049,1.0466,1.0521,1.0484,1.0489,1.0524,1.0535,1.0543,1.0543,1.0416,0,0,0,0,0,1.0548,1.0563,1.0543,1.0579,1.0579,1.0555,1.056,1.054,1.0535,1.0533,1.0521,1.0516,1.0523,1.0529,1.0535,1.0575,1.0569,1.0595,1.0604,1.0611,1.0615,1.0631,1.0641,1.0535,1.0535,1.0535,0,0,1.0586,1.0576,1.0587,1.0591,1.0586,1.06,1.0554,1.0572,1.0581,1.0536,1.0558,1.0549,1.0541,1.0573,1.0587,1.0568,1.0643,1.0617,1.0623,1.0623,1.0637,1.0647,1.0656,1.0539,1.0538,1.0537,0,0,1.066,1.0656,1.0684,1.0679,1.0672,1.0655,1.0662,1.0647,1.0639,1.0662,1.0627,1.0637,1.0652,1.0647,1.0646,1.0715,1.0687,1.0719,1.0763,1.0779,1.0787,1.0794,1.0815,1.0823,1.0723,1.0723,1.0723,0,1.0708,1.0728,1.0701,1.072,1.0721,1.0681,1.0707,1.0704,1.0699,1.07,1.0679,1.0694,1.0687,1.0715,1.0731,1.0734,1.0737,1.0719,1.0788,1.0795,1.0801,1.0821,1.0829,1.0727,1.0726,1.0726,1.0726,0,1.0784,1.0799,1.0822,1.0817,1.0821,1.0844,1.0818,1.0825,1.0805,1.079,1.0811,1.08,1.0801,1.0807,1.0788,1.0832,1.0819,1.0794,1.0756,1.0815,1.0833,1.084,1.0732,1.0731,1.073,1.0729,0,0,1.0897,1.0875,1.0884,1.0879,1.0867,1.0877,1.0897,1.0898,1.0903,1.0901,1.0914,1.0926,1.0901,1.0901,1.088,1.0895,1.0945,1.0867,1.0866,1.0878,1.0987,1.1004,1.1014,1.0928,1.0929,1.093,1.0987,0,1.0965,1.0997,1.0972,1.1008,1.1018,1.098,1.0996,1.0989,1.0975,1.0981,1.0965,1.0973,1.0942,1.094,1.0953,1.0936,1.0966,1.0932,1.0936,1.0937,1.0936,1.1023,1.1042,1.1096,1.0994,1.0995,1.0996,0,1.1049,1.1049,1.1085,1.1067,1.1071,1.1086,1.1083,1.1091,1.1081,1.1069,1.1067,1.1041,1.1056,1.1021,1.104,1.1017,1.1017,1.1009,1.101,1.1007,1.0968,1.1019,1.1113,1.112,1.1007,1.1006,1.1006,0,1.1122,1.1132,1.1154,1.1152,1.1132,1.1143,1.1135,1.1124,1.1125,1.1122,1.1122,1.1122,1.1121,1.112,1.1093,1.1071,1.1113,1.1077,1.1101,1.1102,1.111,1.1109,1.1202,1.1116,1.1116,1.1116,1.1116,0,1.1199,1.1222,1.1186,1.1199,1.1222,1.1193,1.1216,1.1204,1.1194,1.1202,1.117,1.1178,1.1145,1.1149,1.1129,1.1144,1.1145,1.1134,1.1128,1.1135,1.1136,1.1132,1.1127,1.1118,1.1118,1.1117,1.1117,0,1.1284,1.1261,1.1282,1.1261,1.1256,1.1274,1.1256,1.1266,1.1249,1.126,1.1261,1.1234,1.1237,1.1212,1.121,1.1196,1.122,1.1209,1.1223,1.1218,1.1243,1.1239,1.1333,1.1343,1.1255,1.1256,1.1256,0,1.1332,1.1349,1.1329,1.1333,1.1326,1.1333,1.1333,1.1304,1.1306,1.1294,1.1305,1.1305,1.1303,1.1309,1.1289,1.1286,1.1272,1.1306,1.1272,1.1277,1.1268,1.1266,1.1266,1.1312,1.1313,1.1314,1.1315,0,1.142,1.1407,1.1409,1.1407,1.1408,1.1405,1.14,1.1404,1.1372,1.1375,1.1377,1.1376,1.1373,1.1372,1.1365,1.1355,1.1328,1.1326,1.133,1.1336,1.1342,1.1335,1.1238,1.1323,1.1322,1.1322,1.1321,1.1321,1.1485,1.1496,1.1484,1.1486,1.1479,1.1474,1.1481,1.1465,1.1466,1.1462,1.1444,1.1449,1.1435,1.1423,1.1416,1.1417,1.1401,1.1409,1.141,1.1412,1.1414,1.1345,1.1416,1.1416,1.1416,1.1415,1.1415,0,1.1567,1.1557,1.156,1.1552,1.1553,1.1529,1.1521,1.1523,1.1528,1.1518,1.1516,1.1517,1.1516,1.1495,1.149,1.1495,1.1482,1.1494,1.1492,1.1489,1.1431,1.1426,1.1504,1.1504,1.1504,1.1504,1.1504,1.1504,1.161,1.1626,1.1612,1.1623,1.1612,1.1616,1.1613,1.1607,1.1598,1.1601,1.1599,1.1586,1.157,1.1564,1.156,1.1554,1.1552,1.1568,1.1557,1.1502,1.1494,1.1485,1.148,1.1568,1.1568,1.1614,1.1614,1.1614]}]]